K1CSF Weather Reports


time (UTC)temp
C
wind
direction
speed
KPH
gust
KPH
rain 1hr
cm
rain 24hr
cm
rain mn
cm
humidity
%
barometer
mb
20260509131601 9 180 6.4 16.1 0.00 0.00 0.00 50 1014.7
20260509130101 8 196 6.4 14.5 0.00 0.00 0.00 52 1014.9
20260509124606 8 135 1.6 12.9 0.00 0.00 0.00 54 1014.9
20260509123053 7 93 6.4 12.9 0.00 0.00 0.00 55 1015.0
20260509121548 6 137 3.2 4.8 0.00 0.00 0.00 61 1015.0
20260509120058 5 126 0.0 4.8 0.00 0.00 0.00 65 1015.0
20260509114541 5 126 0.0 4.8 0.00 0.00 0.00 64 1015.1
20260509113040 4 114 1.6 4.8 0.00 0.00 0.00 64 1014.9
20260509111539 3 114 1.6 6.4 0.00 0.00 0.00 65 1015.0
20260509110043 3 114 3.2 6.4 0.00 0.00 0.00 66 1015.0
20260509104537 2 114 3.2 6.4 0.00 0.00 0.00 67 1014.9
20260509103037 2 102 3.2 6.4 0.00 0.00 0.00 67 1014.8
20260509101545 2 102 3.2 6.4 0.00 0.00 0.00 67 1014.7
20260509100039 2 102 3.2 9.7 0.00 0.00 0.00 67 1014.5
20260509094532 2 84 4.8 9.7 0.00 0.00 0.00 67 1014.3
20260509093030 2 117 3.2 6.4 0.00 0.00 0.00 67 1014.1
20260509091532 2 117 1.6 6.4 0.00 0.00 0.00 65 1014.1
20260509090024 3 117 1.6 4.8 0.00 0.00 0.00 63 1014.0
20260509084528 3 117 3.2 4.8 0.00 0.00 0.00 63 1013.9
20260509083024 3 117 3.2 4.8 0.00 0.00 0.00 63 1013.9
20260509081522 3 117 3.2 6.4 0.00 0.00 0.00 63 1014.1
20260509080020 3 117 1.6 3.2 0.00 0.00 0.00 62 1014.2
20260509074520 3 117 3.2 4.8 0.00 0.00 0.00 63 1014.2
20260509073028 3 117 1.6 4.8 0.00 0.00 0.00 62 1014.2
20260509071516 3 117 3.2 4.8 0.00 0.00 0.00 61 1014.2
20260509070016 3 117 3.2 4.8 0.00 0.00 0.00 61 1014.2
20260509064514 3 117 3.2 6.4 0.00 0.00 0.00 61 1014.1
20260509063014 3 126 3.2 6.4 0.00 0.00 0.00 61 1014.2
20260509061513 3 125 1.6 4.8 0.00 0.00 0.00 61 1014.2
20260509060027 3 126 3.2 6.4 0.00 0.00 0.00 61 1014.3
20260509054510 3 111 3.2 4.8 0.00 0.00 0.00 60 1014.3
20260509053010 3 111 1.6 4.8 0.00 0.00 0.00 59 1014.2
20260509051508 4 111 3.2 4.8 0.00 0.00 0.00 59 1014.1
20260509050006 4 111 1.6 4.8 0.00 0.00 0.00 58 1014.1
20260509044504 4 111 1.6 6.4 0.00 0.00 0.00 59 1014.2
20260509043003 4 109 3.2 6.4 0.00 0.00 0.00 60 1014.1
20260509041502 4 98 3.2 6.4 0.00 0.00 0.00 59 1014.0
20260509040126 5 96 3.2 6.4 0.00 0.00 0.00 59 1014.0
20260509034601 5 95 3.2 6.4 0.00 0.00 0.00 58 1013.9
20260509033055 5 95 3.2 6.4 0.00 0.00 0.00 58 1013.7
20260509031558 5 90 1.6 6.4 0.00 0.00 0.00 57 1013.6
20260509030057 5 52 3.2 6.4 0.00 0.00 0.00 56 1013.6
20260509024556 5 39 3.2 4.8 0.00 0.00 0.00 57 1013.5
20260509023053 5 39 3.2 4.8 0.00 0.00 0.00 55 1013.6
20260509021552 5 39 1.6 4.8 0.00 0.00 0.00 55 1013.4
20260509020050 5 39 1.6 4.8 0.00 0.00 0.00 54 1013.3
20260509014549 6 39 1.6 3.2 0.00 0.00 0.00 53 1013.1
20260509013051 6 26 3.2 4.8 0.00 0.00 0.00 52 1013.0
20260509011557 6 26 1.6 3.2 0.00 0.00 0.00 51 1012.8
20260509010048 6 26 3.2 6.4 0.00 0.00 0.00 55 1012.6
20260509004603 5 331 1.6 4.8 0.00 0.00 0.00 55 1012.4
20260509003044 5 331 3.2 4.8 0.00 0.00 0.00 56 1012.3
20260509001541 6 304 3.2 4.8 0.00 0.00 0.00 56 1012.2
20260509000040 6 284 1.6 4.8 0.00 0.00 0.00 54 1012.2
20260508234539 6 284 0.0 3.2 0.00 0.00 0.00 54 1012.2
20260508233040 7 284 1.6 4.8 0.00 0.00 0.00 52 1012.1
20260508231538 7 275 1.6 4.8 0.00 0.00 0.00 50 1011.9
20260508230038 7 275 1.6 4.8 0.00 0.00 0.00 49 1011.9
20260508224537 7 265 3.2 12.9 0.00 0.00 0.00 48 1012.0
20260508223042 7 304 6.4 16.1 0.00 0.00 0.00 47 1011.8
20260508221535 7 333 4.8 11.3 0.00 0.00 0.00 47 1011.9
20260508220035 7 329 4.8 12.9 0.00 0.00 0.00 46 1011.8
20260508214538 7 303 6.4 14.5 0.00 0.00 0.00 47 1011.9
20260508213035 7 265 6.4 17.7 0.00 0.00 0.00 49 1011.9
20260508211534 7 309 9.7 20.9 0.00 0.00 0.00 48 1011.8
20260508210033 7 277 6.4 19.3 0.00 0.00 0.00 50 1011.6
20260508204534 7 276 6.4 19.3 0.00 0.00 0.00 50 1011.5
20260508203030 7 338 9.7 20.9 0.00 0.00 0.00 50 1011.4
20260508201530 7 190 4.8 25.7 0.00 0.00 0.00 50 1011.4
20260508200030 7 248 3.2 14.5 0.00 0.00 0.00 50 1011.3
20260508194529 7 263 8.0 20.9 0.00 0.00 0.00 49 1011.3
20260508193028 7 259 6.4 17.7 0.00 0.00 0.00 50 1011.4
20260508191528 7 257 6.4 16.1 0.00 0.00 0.00 52 1011.3
20260508190027 7 322 11.3 20.9 0.00 0.00 0.00 51 1011.5
20260508184525 6 260 8.0 19.3 0.00 0.00 0.00 53 1011.4
20260508183021 6 279 8.0 17.7 0.00 0.00 0.00 53 1011.5
20260508181521 6 270 8.0 17.7 0.00 0.00 0.00 54 1011.6
20260508180024 6 288 8.0 19.3 0.00 0.00 0.00 54 1011.5
20260508174518 6 173 12.9 27.4 0.00 0.00 0.00 53 1011.5
20260508173018 6 204 11.3 24.1 0.00 0.00 0.00 52 1011.4
20260508171517 6 285 11.3 22.5 0.00 0.00 0.00 54 1011.3
20260508170018 7 250 11.3 27.4 0.00 0.00 0.00 52 1011.3
20260508164515 7 248 11.3 22.5 0.00 0.00 0.00 52 1011.3
20260508163014 6 329 12.9 25.7 0.00 0.00 0.00 55 1011.4
20260508161514 6 269 16.1 22.5 0.00 0.00 0.00 53 1011.3
20260508160025 7 284 9.7 22.5 0.00 0.00 0.00 58 1011.2
20260508154511 6 257 11.3 22.5 0.00 0.00 0.00 56 1011.2
20260508153008 6 282 9.7 19.3 0.00 0.00 0.00 59 1011.1
20260508151506 5 244 4.8 25.7 0.00 0.00 0.00 65 1011.2
20260508150003 5 259 8.0 17.7 0.00 0.00 0.00 66 1011.3
20260508144501 5 271 9.7 16.1 0.00 0.00 0.00 68 1011.4
20260508143110 5 211 6.4 14.5 0.00 0.00 0.00 70 1011.3
20260508141610 5 257 4.8 12.9 0.00 0.00 0.00 71 1011.3
20260508140059 5 225 9.7 17.7 0.00 0.00 0.00 71 1011.3
20260508134559 5 315 4.8 19.3 0.00 0.00 0.00 72 1011.3
20260508133100 5 288 9.7 17.7 0.00 0.00 0.00 70 1011.3